Flag for Czech Republic Weather past 2 weeks in Ostrava, Czech Republic

Now
58 °F

Fog.


Feels Like: 59 °F
Forecast: 51 / 72 °F
Wind: 3 mph from North

Location: Ostrava / Mosnov

Current Time: Sep 15, 2014 at 6:50:32 AM

Latest Report: Sep 15, 2014 at 6:00 AM


Visibility: 2 mi

Pressure: 30.05 "Hg

Humidity: 99%

Dew point: 58 °F

Location of OstravaLocation

Historic Weather in Ostrava — Graph

°F

Ostrava temperature yesterday

Maximum temperature yesterday: 69 °F (at 2:00 PM)
Minimum temperature yesterday: 60 °F (at 11:00 PM)
Average temperature yesterday: 64 °F

Past Weeks' High & Low Weather Summary

 TemperatureHumidityPressure
High78 °F (Sep 8, 2:00 PM)100% (Sep 12, 9:00 PM)30.16 "Hg (Sep 12, 9:00 PM)
Low53 °F (Sep 6, 7:00 AM)45% (Sep 8, 4:00 PM)29.85 "Hg (Aug 31, 7:00 PM)
Average62 °F87%30.00 "Hg
* Reported Aug 31 5:00 AM — Sep 15 5:00 AM, Ostrava, Weather by CustomWeather, © 2014

Note: Actual official high and low records may vary slightly from our data, if they occured in-between our weather recording intervals... More about our weather records

Advertising

Ostrava weather history for previous 24 hours

 ConditionsComfort  
Time TempWeatherWind HumidityBarometerVisibility
5:00 AM
Sep 15
58 °FFog.2 mph98%30.05 "Hg3 mi
4:00 AM59 °FFog.2 mph98%30.05 "Hg3 mi
3:00 AM58 °FFog.2 mph98%30.05 "Hg2 mi
2:00 AM59 °FFog.2 mph98%30.06 "Hg1 mi
1:00 AM59 °FFog.2 mph98%30.06 "Hg1 mi
12:00 AM59 °FFog.1 mph98%30.05 "Hg1 mi
11:00 PM
Sep 14
60 °FFog.2 mph98%30.06 "Hg2 mi
10:00 PM61 °FFog.2 mph97%30.05 "Hg1 mi
9:00 PM62 °FPassing clouds.2 mph98%30.05 "Hg2 mi
8:00 PM63 °FLight rain. Overcast.3 mph96%30.05 "Hg2 mi
7:00 PM64 °FLight rain. Overcast.N/A95%30.03 "Hg2 mi
6:00 PM66 °FLight rain. Overcast.5 mph89%30.03 "Hg3 mi
5:00 PM67 °FLight rain. Overcast.2 mph84%30.02 "Hg3 mi
4:00 PM68 °FLight rain. Overcast.5 mph80%30.01 "Hg4 mi
3:00 PM69 °FFog.3 mph76%30.02 "Hg4 mi
2:00 PM69 °FOvercast.3 mph73%30.03 "Hg7 mi
1:00 PM69 °FOvercast.N/A72%30.03 "Hg7 mi
12:00 PM67 °FPartly sunny.N/A76%30.02 "Hg6 mi
11:00 AM65 °FFog.N/A86%30.03 "Hg4 mi
10:00 AM64 °FLow clouds.1 mph95%30.03 "Hg2 mi
9:00 AM62 °FLight rain. Low clouds.1 mph97%30.02 "Hg2 mi
8:00 AM61 °FLight rain. Low clouds.1 mph100%30.02 "Hg1 mi
7:00 AM61 °FLight rain. Low clouds.1 mph98%30.02 "Hg1 mi
6:00 AM61 °FLow clouds.2 mph98%30.01 "Hg2 mi
Weather by CustomWeather, © 2014

See weather overviewHow to use our weather pages